When you browse on this site, cookies collect data to enhance your experience and personalize the content and advertising you see.
Visit our Privacy Policy to learn more. By continuing to use the site, you agree to this use of cookies and data.
  • In Latvia
  • List of Countries
  • For 7 days
  • Water Temperature
  • Satellite Maps
  • Weather Map
  • Weather Widgets
  • user-avatar
    Login

    Hourly Weather Spokoynyy

    Today, 25 March, Monday

    Time Temperature Precipitation Wind Pressure Humidity
    00:00 -1°C° 0 mm 2 mps 743 mmHg 87%
    01:00 -1°C° 0 mm 2 mps 743 mmHg 86%
    02:00 -1°C° 0 mm 2 mps 743 mmHg 84%
    03:00 +1°C° 0 mm 1 mps 742 mmHg 85%
    04:00 +1°C° 0 mm 1 mps 742 mmHg 82%
    05:00 +1°C° 0 mm 1 mps 742 mmHg 80%
    06:00 +1°C° 0 mm 1 mps 742 mmHg 78%
    07:00 +3°C° 0 mm 1 mps 742 mmHg 70%
    08:00 +5°C° 0 mm 1 mps 742 mmHg 61%
    09:00 +7°C° 0 mm 1 mps 741 mmHg 52%
    10:00 +8°C° 0 mm 1 mps 741 mmHg 50%
    11:00 +9°C° 0 mm 1 mps 741 mmHg 47%
    12:00 +10°C° 0 mm 1 mps 741 mmHg 44%
    13:00 +11°C° 0 mm 1 mps 741 mmHg 45%
    14:00 +11°C° 0 mm 1 mps 741 mmHg 45%
    15:00 +10°C° 0 mm 2 mps 740 mmHg 44%
    16:00 +10°C° 0 mm 1 mps 740 mmHg 49%
    17:00 +9°C° 0 mm 1 mps 740 mmHg 55%
    18:00 +9°C° 0 mm 1 mps 740 mmHg 60%
    19:00 +7°C° 0 mm 1 mps 740 mmHg 64%
    20:00 +6°C° 0 mm 1 mps 740 mmHg 68%
    21:00 +5°C° 0 mm 1 mps 740 mmHg 73%
    22:00 +4°C° 0 mm 1 mps 740 mmHg 74%
    23:00 +4°C° 0 mm 1 mps 740 mmHg 75%

    Tomorrow, 26 March, Tuesday

    Time Temperature Precipitation Wind Pressure Humidity
    00:00 +4°C° 0 mm 1 mps 740 mmHg 76%
    01:00 +3°C° 0 mm 1 mps 740 mmHg 76%
    02:00 +3°C° 0 mm 1 mps 740 mmHg 75%
    03:00 +3°C° 0 mm 1 mps 740 mmHg 75%
    04:00 +3°C° 0 mm 1 mps 740 mmHg 74%
    05:00 +3°C° 0 mm 1 mps 739 mmHg 72%
    06:00 +3°C° 0 mm 1 mps 739 mmHg 71%
    07:00 +5°C° 0 mm 1 mps 739 mmHg 64%
    08:00 +7°C° 0 mm 1 mps 739 mmHg 57%
    09:00 +10°C° 0 mm 1 mps 739 mmHg 51%
    10:00 +11°C° 0 mm 1 mps 739 mmHg 48%
    11:00 +12°C° 0 mm 2 mps 739 mmHg 45%
    12:00 +14°C° 0 mm 2 mps 739 mmHg 43%
    13:00 +14°C° 0 mm 2 mps 739 mmHg 42%
    14:00 +15°C° 0 mm 2 mps 738 mmHg 41%
    15:00 +15°C° 0 mm 2 mps 738 mmHg 40%
    16:00 +14°C° 0 mm 2 mps 738 mmHg 45%
    17:00 +13°C° 0 mm 1 mps 738 mmHg 50%
    18:00 +12°C° 0 mm 1 mps 738 mmHg 56%
    19:00 +10°C° 0 mm 1 mps 738 mmHg 59%
    20:00 +9°C° 0 mm 1 mps 738 mmHg 62%
    21:00 +8°C° 0 mm 1 mps 738 mmHg 65%
    22:00 +7°C° 0 mm 1 mps 738 mmHg 66%
    23:00 +7°C° 0 mm 1 mps 738 mmHg 68%

    Day after tomorrow, 27 March, Wednesday

    Time Temperature Precipitation Wind Pressure Humidity
    00:00 +6°C° 0 mm 1 mps 738 mmHg 69%
    01:00 +6°C° 0 mm 1 mps 738 mmHg 70%
    02:00 +6°C° 0 mm 1 mps 738 mmHg 72%
    03:00 +5°C° 0 mm 1 mps 738 mmHg 73%
    04:00 +5°C° 0 mm 1 mps 738 mmHg 74%
    05:00 +5°C° 0 mm 1 mps 738 mmHg 74%
    06:00 +5°C° 0 mm 1 mps 739 mmHg 75%
    07:00 +7°C° 0 mm 1 mps 739 mmHg 68%
    08:00 +9°C° 0 mm 1 mps 739 mmHg 61%
    09:00 +12°C° 0 mm 1 mps 739 mmHg 54%
    10:00 +13°C° 0 mm 2 mps 740 mmHg 52%
    11:00 +13°C° 0 mm 3 mps 740 mmHg 51%
    12:00 +14°C° 0 mm 3 mps 740 mmHg 49%
    13:00 +14°C° 0 mm 4 mps 740 mmHg 49%
    14:00 +14°C° 0 mm 5 mps 740 mmHg 48%
    15:00 +14°C° 0 mm 5 mps 740 mmHg 48%
    16:00 +13°C° 0 mm 5 mps 740 mmHg 55%
    17:00 +10°C° 0 mm 5 mps 741 mmHg 62%
    18:00 +9°C° 0 mm 5 mps 741 mmHg 69%
    19:00 +8°C° 0.2 mm 4 mps 742 mmHg 74%
    20:00 +7°C° 0.2 mm 4 mps 742 mmHg 78%
    21:00 +8°C° 0.2 mm 3 mps 743 mmHg 82%
    22:00 +7°C° 0 mm 3 mps 743 mmHg 79%
    23:00 +5°C° 0 mm 3 mps 743 mmHg 77%

    28 March, Thursday

    Time Temperature Precipitation Wind Pressure Humidity
    00:00 +4°C° 0 mm 3 mps 743 mmHg 75%
    01:00 +3°C° 0 mm 3 mps 743 mmHg 74%
    02:00 +4°C° 0 mm 2 mps 744 mmHg 73%
    03:00 +4°C° 0 mm 2 mps 744 mmHg 72%
    04:00 +4°C° 0 mm 2 mps 744 mmHg 73%
    05:00 +5°C° 0 mm 1 mps 744 mmHg 73%
    06:00 +5°C° 0 mm 1 mps 744 mmHg 73%
    07:00 +4°C° 0.1 mm 2 mps 744 mmHg 72%
    08:00 +5°C° 0.1 mm 2 mps 744 mmHg 71%
    09:00 +4°C° 0.1 mm 3 mps 744 mmHg 70%
    10:00 +5°C° 0.1 mm 3 mps 744 mmHg 67%
    11:00 +6°C° 0.1 mm 4 mps 744 mmHg 64%
    12:00 +6°C° 0.1 mm 5 mps 744 mmHg 61%
    13:00 +7°C° 0 mm 5 mps 744 mmHg 56%
    14:00 +7°C° 0 mm 6 mps 744 mmHg 51%
    15:00 +8°C° 0 mm 6 mps 744 mmHg 46%
    16:00 +7°C° 0 mm 6 mps 744 mmHg 50%
    17:00 +6°C° 0 mm 5 mps 744 mmHg 53%
    18:00 +5°C° 0 mm 5 mps 744 mmHg 56%
    19:00 +4°C° 0 mm 4 mps 745 mmHg 62%
    20:00 +1°C° 0 mm 4 mps 745 mmHg 67%
    21:00 +1°C° 0 mm 3 mps 746 mmHg 73%
    22:00 +1°C° 0 mm 3 mps 746 mmHg 75%
    23:00 0°C° 0 mm 3 mps 746 mmHg 78%

    29 March, Friday

    Time Temperature Precipitation Wind Pressure Humidity
    00:00 -1°C° 0 mm 2 mps 746 mmHg 81%
    01:00 +1°C° 0 mm 2 mps 746 mmHg 82%
    02:00 +1°C° 0 mm 2 mps 747 mmHg 82%
    03:00 +1°C° 0 mm 2 mps 747 mmHg 83%
    04:00 +1°C° 0 mm 1 mps 747 mmHg 85%
    05:00 +1°C° 0 mm 1 mps 747 mmHg 87%
    06:00 +1°C° 0 mm 1 mps 747 mmHg 89%
    07:00 +2°C° 0 mm 1 mps 747 mmHg 79%
    08:00 +4°C° 0 mm 1 mps 748 mmHg 69%
    09:00 +6°C° 0 mm 1 mps 748 mmHg 59%
    10:00 +7°C° 0 mm 1 mps 748 mmHg 52%
    11:00 +7°C° 0 mm 2 mps 747 mmHg 45%
    12:00 +8°C° 0 mm 2 mps 747 mmHg 38%
    13:00 +8°C° 0 mm 2 mps 747 mmHg 38%
    14:00 +9°C° 0 mm 2 mps 746 mmHg 37%
    15:00 +9°C° 0 mm 2 mps 746 mmHg 37%
    16:00 +8°C° 0 mm 2 mps 745 mmHg 42%
    17:00 +7°C° 0 mm 2 mps 745 mmHg 48%
    18:00 +7°C° 0 mm 2 mps 745 mmHg 53%
    19:00 +5°C° 0 mm 2 mps 745 mmHg 57%
    20:00 +5°C° 0 mm 1 mps 746 mmHg 61%
    21:00 +3°C° 0 mm 1 mps 746 mmHg 65%
    22:00 +2°C° 0 mm 2 mps 745 mmHg 67%
    23:00 +1°C° 0 mm 2 mps 745 mmHg 69%

    30 March, Saturday

    Time Temperature Precipitation Wind Pressure Humidity
    00:00 +1°C° 0 mm 2 mps 745 mmHg 71%
    01:00 +1°C° 0 mm 2 mps 745 mmHg 70%
    02:00 -1°C° 0 mm 2 mps 744 mmHg 69%
    03:00 -1°C° 0 mm 2 mps 744 mmHg 68%
    04:00 0°C° 0 mm 3 mps 744 mmHg 68%
    05:00 0°C° 0 mm 3 mps 744 mmHg 68%
    06:00 -1°C° 0 mm 4 mps 744 mmHg 68%
    07:00 +1°C° 0 mm 4 mps 744 mmHg 62%
    08:00 +2°C° 0 mm 5 mps 744 mmHg 57%
    09:00 +5°C° 0 mm 5 mps 744 mmHg 51%
    10:00 +5°C° 0.1 mm 5 mps 744 mmHg 55%
    11:00 +6°C° 0.1 mm 5 mps 744 mmHg 58%
    12:00 +6°C° 0.1 mm 5 mps 744 mmHg 61%
    13:00 +7°C° 0 mm 5 mps 744 mmHg 60%
    14:00 +8°C° 0 mm 5 mps 744 mmHg 58%
    15:00 +8°C° 0 mm 5 mps 744 mmHg 56%
    16:00 +8°C° 0.1 mm 4 mps 744 mmHg 61%
    17:00 +8°C° 0.1 mm 3 mps 744 mmHg 66%
    18:00 +7°C° 0.1 mm 2 mps 744 mmHg 71%
    19:00 +7°C° 0 mm 1 mps 744 mmHg 74%
    20:00 +6°C° 0 mm 1 mps 745 mmHg 77%
    21:00 +5°C° 0 mm 1 mps 745 mmHg 80%
    22:00 +4°C° 0 mm 1 mps 745 mmHg 81%
    23:00 +4°C° 0 mm 1 mps 746 mmHg 81%
    Show more